Change the Weather History Date:

Friday, May 3, 2013

  Actual Average Record
Temperature  
Mean Temperature 59 °F -  
Max Temperature 77 °F 70 °F 91 °F (1954)
Min Temperature 43 °F 42 °F 29 °F (1966)
Degree Days  
Heating Degree Days 6    
Growing Degree Days 9 (Base 50)    
Moisture  
Dew Point 36 °F    
Average Humidity 41    
Maximum Humidity 82    
Minimum Humidity 19    
Precipitation  
Precipitation 0.00 in - - ()
Sea Level Pressure  
Sea Level Pressure 30.17 in    
Wind  
Wind Speed 6 mph (ESE)    
Max Wind Speed 18 mph    
Max Gust Speed 25 mph    
Visibility 10 miles    
Events      
Averages and records for this station are not official NWS values.
T = Trace of Precipitation, MM = Missing Value Source: NWS Daily Summary

Daily Weather History Graph

Daily Weather History Graph

Search for Another Location

Airport or City:

Trip Planner

Search our weather history database for the weather conditions in past years. The results will help you decide how hot, cold, wet, or windy it might be!

Date:

Astronomy

May. 03, 2013 Rise Set
Actual Time 6:19 AM EDT 8:16 PM EDT
Civil Twilight 5:50 AM EDT 8:45 PM EDT
Nautical Twilight 5:15 AM EDT 9:21 PM EDT
Astronomical Twilight 4:36 AM EDT 9:59 PM EDT
Moon 2:40 AM EDT (5/3) 2:11 PM EDT (5/3)
Length of Visible Light 14h 55m
Length of Day
13h 56m
Last Quarter, 37% of the Moon is Illuminated
May 3
Last Quarter
May 9
New
May 18
First Quarter
May 25
Full
May 31
Last Quarter

Hourly Weather History & Observations

Time (EDT) Temp. Dew Point Humidity Pressure Visibility Wind Dir Wind Speed Gust Speed Precip Events Conditions
12:53 AM 61.0 °F 37.0 °F 41% 30.19 in 10.0 mi ESE 4.6 mph - N/A   Clear
1:53 AM 57.9 °F 36.0 °F 44% 30.19 in 10.0 mi East 4.6 mph - N/A   Clear
2:53 AM 53.1 °F 37.9 °F 57% 30.19 in 10.0 mi Calm Calm - N/A   Clear
3:53 AM 50.0 °F 36.0 °F 59% 30.19 in 10.0 mi Calm Calm - N/A   Clear
4:53 AM 48.9 °F 37.0 °F 64% 30.19 in 10.0 mi Calm Calm - N/A   Clear
5:53 AM 43.0 °F 37.9 °F 82% 30.19 in 10.0 mi Calm Calm - N/A   Clear
6:53 AM 44.1 °F 37.0 °F 76% 30.21 in 10.0 mi Calm Calm - N/A   Clear
7:53 AM 51.1 °F 42.1 °F 71% 30.21 in 10.0 mi Calm Calm - N/A   Clear
8:53 AM 59.0 °F 34.0 °F 39% 30.21 in 10.0 mi East 6.9 mph - N/A   Clear
9:53 AM 63.0 °F 33.1 °F 33% 30.20 in 10.0 mi East 5.8 mph - N/A   Clear
10:53 AM 69.1 °F 28.9 °F 22% 30.19 in 10.0 mi ESE 8.1 mph - N/A   Clear
11:53 AM 72.0 °F 28.9 °F 20% 30.17 in 10.0 mi SE 9.2 mph 17.3 mph N/A   Clear
12:53 PM 73.9 °F 28.9 °F 19% 30.15 in 10.0 mi SE 11.5 mph 17.3 mph N/A   Clear
1:53 PM 75.0 °F 33.1 °F 22% 30.14 in 10.0 mi East 13.8 mph 25.3 mph N/A   Clear
2:53 PM 75.9 °F 36.0 °F 23% 30.13 in 10.0 mi SE 12.7 mph 23.0 mph N/A   Clear
3:53 PM 75.0 °F 37.0 °F 25% 30.11 in 10.0 mi SSE 12.7 mph 19.6 mph N/A   Partly Cloudy
4:53 PM 73.9 °F 37.0 °F 26% 30.12 in 10.0 mi ESE 18.4 mph 25.3 mph N/A   Scattered Clouds
5:53 PM 72.0 °F 37.9 °F 29% 30.13 in 10.0 mi ESE 13.8 mph 24.2 mph N/A   Clear
6:53 PM 70.0 °F 39.0 °F 32% 30.13 in 10.0 mi SE 9.2 mph 20.7 mph N/A   Clear
7:53 PM 66.9 °F 39.0 °F 36% 30.14 in 10.0 mi SE 11.5 mph - N/A   Clear
8:53 PM 64.9 °F 39.0 °F 39% 30.15 in 10.0 mi ESE 9.2 mph 17.3 mph N/A   Clear
9:53 PM 62.1 °F 39.9 °F 44% 30.17 in 10.0 mi East 5.8 mph - N/A   Clear
10:53 PM 61.0 °F 39.0 °F 44% 30.17 in 10.0 mi East 8.1 mph - N/A   Clear
11:53 PM 60.1 °F 39.0 °F 46% 30.16 in 10.0 mi East 6.9 mph - N/A   Clear